Regional Weather Roundup
Issued by NWS

Home | Current Version | Previous Version | Graphics & Text | Print | Product List | Glossary On
Versions: 1 2 3 4 5 6 7 8 9 10 11 12 13 14 15 16 17 18 19 20 21 22 23 24 25 26 27 28 29 30 31 32 33 34 35 36 37 38 39 40 41 42 43 44 45 46 47 48 49 50
000
ASUS43 KDMX 200207
RWRIA

WEATHER ROUNDUP FOR IOWA
NATIONAL WEATHER SERVICE DES MOINES IA
800 PM CST FRI DEC 19 2014

NOTE: "FAIR" INDICATES FEW OR NO CLOUDS BELOW 12,000 FEET WITH NO
SIGNIFICANT WEATHER AND/OR OBSTRUCTIONS TO VISIBILITY.

* - THESE STATIONS ARE NOT NWS STATIONS...THUS NOT UNDER NWS
QUALITY CONTROL.  THEY ALSO DO NOT REPORT WEATHER SUCH
AS PRECIPITATION OR FOG.

IAZ001>003-012>014-020>022-031>034-043>046-200300-
   NORTHWEST IOWA

CITY           SKY/WX    TMP DP  RH WIND       PRES   REMARKS
CARROLL *      CLOUDY    30  30 100 SW12      30.16S FOG     WCI  21
CHEROKEE *     CLOUDY    32  30  93 S9        30.13F WCI  24
DENISON *      CLOUDY    30  30 100 S9G16     30.13S WCI  22
LE MARS *      CLOUDY    32  28  86 S8G14     30.11F WCI  25
ORANGE CITY *  CLOUDY    32  27  80 S12       30.10S WCI  23
SHELDON *      CLOUDY    30  30 100 S14       30.09F WCI  20
SIOUX CITY     CLOUDY    33  28  81 SE7       30.12F WCI  27
SPENCER        CLOUDY    32  27  81 SW13      30.13S WCI  22
STORM LAKE *   CLOUDY    30  30 100 S12       30.14R FOG     WCI  21
$$

IAZ055>058-069>071-079>083-090>094-200300-
   SOUTHWEST IOWA

CITY           SKY/WX    TMP DP  RH WIND       PRES   REMARKS
ATLANTIC *     CLOUDY    28  28 100 S7        30.17S WCI  21
AUDUBON *      CLOUDY    28  25  86 S7        30.17S HAZE    WCI  21
CLARINDA *     CLOUDY    30  28  93 S7        30.21F WCI  23
COUNCIL BLFS * CLOUDY    30  30 100 S8        30.14F FOG     WCI  23
CRESTON *      CLOUDY    30  30 100 S6        30.18F FOG     WCI  24
HARLAN  *      CLOUDY    30  30 100 S10       30.19F WCI  21
LAMONI         CLOUDY    31  30  96 S5        30.19S FOG     WCI  26
RED OAK *      CLOUDY    30  30 100 S6        30.18F WCI  24
SHENANDOAH *   CLOUDY    30  28  93 SW10      30.19F WCI  21
$$

IAZ047>049-059>061-072>074-084-200300-
   CENTRAL IOWA

CITY           SKY/WX    TMP DP  RH WIND       PRES   REMARKS
AMES           CLOUDY    30  26  85 SE8       30.19F FOG     WCI  22
ANKENY *       CLOUDY    32  28  86 SE8       30.20S WCI  25
CHARITON *     CLOUDY    32  30  93 SE7       30.20S FOG     WCI  26
DES MOINES     CLOUDY    32  28  85 SE9       30.20S WCI  24
GRINNELL*      CLOUDY    28  27  93 SE7       30.22S WCI  21
KNOXVILLE *    CLOUDY    30  27  86 SE7       30.20S WCI  23
MARSHALLTOWN   CLOUDY    29  25  85 SE9       30.19F WCI  20
PELLA *        CLOUDY    30  27  86 SE8       30.23S WCI  23
PERRY *        CLOUDY    32  32 100 SE8       30.18S FOG     WCI  25
$$

IAZ004>006-015-016-023>025-035-036-200300-
   NORTH CENTRAL IOWA

CITY           SKY/WX    TMP DP  RH WIND       PRES   REMARKS
ALGONA *       CLOUDY    30  32 100 S10       30.16S FOG     WCI  21
CLARION *      CLOUDY    30  30 100 SE10      30.17S FOG     WCI  21
ESTHERVILLE    CLOUDY    30  29  96 S10       30.13S WCI  21
FORT DODGE *   CLOUDY    30  27  86 SE6       30.17S WCI  24
MASON CITY     CLOUDY    28  26  92 S10       30.18F WCI  19
FOREST CITY *  CLOUDY    32  28  86 S9        30.16F FOG     WCI  24
IOWA FALLS *   CLOUDY    30  27  86 SE9       30.19F WCI  22
$$

IAZ007>011-017>019-026>030-037>042-050>054-066-200300-
   NORTHEAST IOWA

CITY           SKY/WX    TMP DP  RH WIND       PRES   REMARKS
CEDAR RAPIDS   CLOUDY    29  22  75 SE5       30.22F WCI  24
CHARLES CITY * CLOUDY    28  25  86 SE9       30.20S WCI  20
CLINTON *      PTCLDY    23  19  86 SE5       30.29F WCI  17
DECORAH *      CLOUDY    27  23  86 SE6       30.20F WCI  20
DUBUQUE        MOCLDY    24  21  88 S3        30.24S
MONTICELLO *   CLOUDY    28  25  86 SE7       30.24F WCI  21
OELWEIN *      CLOUDY    28  25  86 SE9       30.21F WCI  20
WATERLOO       CLOUDY    30  23  75 SE8       30.21F WCI  22
$$

IAZ064-065-067-068-078-200300-
   EAST CENTRAL IOWA

CITY           SKY/WX    TMP DP  RH WIND       PRES   REMARKS
DAVENPORT      CLOUDY    26  21  81 E7        30.26F WCI  18
IOWA CITY      CLOUDY    30  22  72 SE3       30.26F
MT. PLEASANT * CLOUDY    30  27  86 CALM      30.25S FOG
MUSCATINE *    CLOUDY    32  23  69 E6        30.27S WCI  26
QUAD CITIES    CLOUDY    28  22  78 E8        30.27S WCI  20
$$

IAZ062-063-075>077-085>089-095>099-200300-
   SOUTHEAST IOWA

CITY           SKY/WX    TMP DP  RH WIND       PRES   REMARKS
BURLINGTON     CLOUDY    32  24  72 SE6       30.25S WCI  26
FAIRFIELD *    CLOUDY    30  25  80 SE7       30.24S WCI  23
FORT MADISON * CLOUDY    34  28  80 CALM      30.26S
KEOKUK *       CLOUDY    32  28  86 SE5       30.25S WCI  27
OSKALOOSA *    CLOUDY    28  27  93 SE6       30.24R FOG     WCI  22
CENTERVILLE *  CLOUDY    32  32 100 SE7       30.22S WCI  26
OTTUMWA        CLOUDY    30  25  81 SE7       30.23S WCI  23
WASHINGTON *   CLOUDY    30  28  93 SE5       30.25S WCI  25
$$

ABBREVIATIONS USED IN REMARKS
   TC - TEMPERATURES IN CELSIUS
  WCI - WIND CHILL INDEX
   HX - HEAT INDEX
  VSB - VISIBILITY
$$



USA.gov is the U.S. government's official web portal to all federal, state and local government web resources and services.